Location: La Sioule Rivi�re
(46.3664°N, 3.3197°E)
Time: 12:40:21
(UTC+00:00)

USA 306 - Pass Details

Date: 29 October 2020
Orbit: 569 x 577 km, 54.0° (Epoch: 22 November)

Event Time Altitude Azimuth Distance (km) Brightness Sun altitude
Rises 17:55:33 0° 302° (WNW) 2,787 7.3 -14.2°
Reaches altitude 10° 17:57:49 10° 304° (NW) 1,885 6.3 -14.6°
Maximum altitude 18:02:07 75° 30° (NNE) 597 2.8 -15.4°
Enters shadow 18:04:26 26° 112° (ESE) 1,137 3.9 -15.8°
